sat.trackr.live / text

‹ back to catalog

STARLINK-36464

NORAD 67428 · 2026-005AA

PAYLOAD ACTIVE UNKNOWN

§ Identity

Operator
Country
US
Launch date
2026-01-12
Launch site
AFETR
Launch vehicle
Mass (kg)
RCS (m²)

Purposes: comms

External: N2YO · Heavens-Above · Gunter

§ Orbital elements

Epoch: 2026-05-25T02:29:32.150976Z

Period
94.27 min
Inclination
43.0013°
Eccentricity
0.0000989
Mean motion
15.27588805 rev/d
Perigee alt
482.3 km
Apogee alt
483.7 km
Semi-major
6,861.2 km
B*
3.8631e-4
RAAN
166.3776°
Arg perigee
271.5196°
Mean anomaly
88.5542°
Rev number
2,037

§ Raw data

STARLINK-364641 67428U 26005AA  26145.10384434  .00010386  00000+0  38631-3 0  99962 67428  43.0013 166.3776 0000989 271.5196  88.5542 15.27588805 20376

JSON: /api/v1/satellites/67428 · /tle

For live sub-satellite position, see the globe view (requires WebGL).

§ Visibility from observer

Set your observer location to see the next 7 days of passes ≥ 10°. The values pass through the URL so the page stays shareable.

No JS? Fill the form by hand. The geolocation button needs JavaScript.